TITAN 3C TRANSTAGE DEB, 43282

Orbit data source: Space-Track

TITAN 3C TRANSTAGE DEB, 43282 is space debris in GEO originally from a launch on Sun, 09 Feb 1969 UTC launched from the Air Force Eastern Test Range (AFETR). Debris objects in space refer to the collection of defunct objects orbiting the Earth. Examples of debris include non-operational satellites, rocket bodies, and fragments generated from explosions, collisions, or faulty payload assembly.

Not visible in the next 10 days
Identifier
43282, 1969-013C
Orbit
GEO
Country
Flag of USUS
Related business
Manufacturer
Martin Marietta
Mission
Spacecraft
Bus & Motor
Unknown
Mass
Unknown
Launch date (UTC)
1969-02-09 (58 years ago)
Launch vehicle
Unknown
Launch site
Air Force Eastern Test Range (AFETR)
Object type
Payload
Rocket body
Debris
Shape & HBR
Unknown shape, 1.1 m
Radar Cross Section
Medium (>0.1 m² and <1 m²)

Expand to show TLE details & history
Last TLE update: 16 hours ago

TLE from 16 hours ago
0 TITAN 3C TRANSTAGE DEB
1 43282U 69013C   26255.10348183 -.00000183  00000-0  00000-0 0  9999
2 43282   2.3954  61.0298 0276881 232.5974 125.5334  0.91409883 28380
Epoch: 2026-09-12T02:29Z
TLE epoch observation values (Epoch: 2026-09-12T02:29:00.830Z)
Latitude
-0.00001°
Longitude
33.32103°
Altitude
39,205.773 km
Speed
2.933 km/s
True Right ascension
04h 06m 46s
True Declination
0° 00' 00"
Sunlit
Object was in daylight at epoch
Visualization orbit readout
Latitude
Unknown
Longitude
Unknown
Altitude
Unknown
Speed
Unknown
Apparent Right ascension
Unknown
Apparent Declination
Unknown
Sunlit
N/A
Visualization observer readout
Local Sidereal Time
11:14:55
Azimuth
Unknown
Elevation
Unknown
Doppler factor
Unknown
Orbital elements
Apogee altitude
39,712.3 km
Perigee altitude
37,228.752 km
Semi-major axis
44,848.663 km
Eccentricity
0.02769
Inclination
2.3954°
RAAN
61.0298°
Arg. of periapsis
232.5974°
True anomaly
128.0636°
Mean anomaly
125.5334°
Eccentric anomaly
126.80363°
Mean motion
0.22852 °/min
Orbital period
1,575.37 mins
BSTAR
0
Loading maneuver chart data...
Computing Atmospheric mass density...

Documentation

Showing up to 5 results
|